• In Belarus
  • List of Countries
  • For 7 days
  • Water Temperature
  • Satellite Maps
  • Weather Map
  • Weather Widgets
  • user-avatar
    Login

    Hourly Weather Belmopan

    Today, 17 December, Sunday

    Time Temperature Precipitation Wind Pressure Humidity
    00:00 +22°C° 0.2 mm 0 mps 755 mmHg 99%
    01:00 +22°C° 0.5 mm 0 mps 755 mmHg 99%
    02:00 +22°C° 0.5 mm 0 mps 754 mmHg 99%
    03:00 +22°C° 0.5 mm 0 mps 754 mmHg 99%
    04:00 +22°C° 0.4 mm 0 mps 754 mmHg 99%
    05:00 +22°C° 0.4 mm 0 mps 754 mmHg 99%
    06:00 +22°C° 0.4 mm 0 mps 754 mmHg 99%
    07:00 +25°C° 0.2 mm 1 mps 755 mmHg 96%
    08:00 +26°C° 0.2 mm 1 mps 755 mmHg 93%
    09:00 +27°C° 0.2 mm 2 mps 756 mmHg 90%
    10:00 +28°C° 0.4 mm 2 mps 756 mmHg 86%
    11:00 +28°C° 0.4 mm 2 mps 756 mmHg 81%
    12:00 +29°C° 0.4 mm 3 mps 755 mmHg 76%
    13:00 +29°C° 0.3 mm 2 mps 755 mmHg 77%
    14:00 +29°C° 0.3 mm 2 mps 754 mmHg 77%
    15:00 +29°C° 0.3 mm 2 mps 753 mmHg 77%
    16:00 +28°C° 0.1 mm 2 mps 753 mmHg 82%
    17:00 +26°C° 0.1 mm 1 mps 753 mmHg 87%
    18:00 +25°C° 0.1 mm 1 mps 753 mmHg 92%
    19:00 +25°C° 0.1 mm 1 mps 754 mmHg 94%
    20:00 +24°C° 0.1 mm 1 mps 754 mmHg 96%
    21:00 +24°C° 0.1 mm 1 mps 755 mmHg 99%
    22:00 +24°C° 0.1 mm 1 mps 755 mmHg 99%
    23:00 +24°C° 0.1 mm 1 mps 755 mmHg 99%

    Tomorrow, 18 December, Monday

    Time Temperature Precipitation Wind Pressure Humidity
    00:00 +24°C° 0.1 mm 1 mps 755 mmHg 99%
    01:00 +24°C° 0.1 mm 1 mps 754 mmHg 99%
    02:00 +24°C° 0.1 mm 1 mps 754 mmHg 99%
    03:00 +24°C° 0.1 mm 1 mps 754 mmHg 99%
    04:00 +24°C° 0.2 mm 1 mps 754 mmHg 99%
    05:00 +24°C° 0.2 mm 1 mps 754 mmHg 99%
    06:00 +24°C° 0.2 mm 1 mps 754 mmHg 99%
    07:00 +25°C° 0.7 mm 1 mps 755 mmHg 96%
    08:00 +26°C° 0.7 mm 1 mps 756 mmHg 93%
    09:00 +27°C° 0.7 mm 2 mps 756 mmHg 90%
    10:00 +28°C° 0.9 mm 2 mps 756 mmHg 88%
    11:00 +28°C° 0.9 mm 2 mps 756 mmHg 87%
    12:00 +28°C° 0.9 mm 2 mps 755 mmHg 86%
    13:00 +29°C° 0.6 mm 3 mps 755 mmHg 84%
    14:00 +29°C° 0.6 mm 3 mps 754 mmHg 83%
    15:00 +29°C° 0.6 mm 3 mps 753 mmHg 81%
    16:00 +28°C° 0.3 mm 2 mps 754 mmHg 85%
    17:00 +27°C° 0.3 mm 2 mps 754 mmHg 89%
    18:00 +26°C° 0.3 mm 1 mps 754 mmHg 93%
    19:00 +25°C° 0.1 mm 1 mps 754 mmHg 95%
    20:00 +25°C° 0.1 mm 1 mps 755 mmHg 96%
    21:00 +25°C° 0.1 mm 1 mps 755 mmHg 98%
    22:00 +25°C° 0.1 mm 1 mps 755 mmHg 98%
    23:00 +25°C° 0.1 mm 1 mps 755 mmHg 98%

    Day after tomorrow, 19 December, Tuesday

    Time Temperature Precipitation Wind Pressure Humidity
    00:00 +25°C° 0.1 mm 1 mps 755 mmHg 98%
    01:00 +25°C° 0.3 mm 1 mps 755 mmHg 98%
    02:00 +24°C° 0.3 mm 1 mps 754 mmHg 99%
    03:00 +24°C° 0.3 mm 1 mps 754 mmHg 99%
    04:00 +24°C° 0.2 mm 1 mps 754 mmHg 99%
    05:00 +24°C° 0.2 mm 1 mps 754 mmHg 99%
    06:00 +24°C° 0.2 mm 1 mps 754 mmHg 99%
    07:00 +25°C° 0.3 mm 1 mps 755 mmHg 96%
    08:00 +26°C° 0.3 mm 2 mps 756 mmHg 93%
    09:00 +27°C° 0.3 mm 2 mps 756 mmHg 91%
    10:00 +28°C° 0.5 mm 2 mps 756 mmHg 85%
    11:00 +29°C° 0.5 mm 2 mps 755 mmHg 80%
    12:00 +30°C° 0.5 mm 2 mps 755 mmHg 75%
    13:00 +30°C° 0.4 mm 2 mps 754 mmHg 74%
    14:00 +30°C° 0.4 mm 2 mps 753 mmHg 73%
    15:00 +30°C° 0.4 mm 2 mps 753 mmHg 72%
    16:00 +28°C° 0.1 mm 2 mps 753 mmHg 79%
    17:00 +27°C° 0.1 mm 2 mps 753 mmHg 85%
    18:00 +26°C° 0.1 mm 1 mps 753 mmHg 92%
    19:00 +25°C° 0.1 mm 1 mps 754 mmHg 94%
    20:00 +25°C° 0.1 mm 1 mps 754 mmHg 96%
    21:00 +25°C° 0.1 mm 1 mps 755 mmHg 98%
    22:00 +25°C° 0.1 mm 1 mps 755 mmHg 99%
    23:00 +25°C° 0.1 mm 1 mps 755 mmHg 99%

    20 December, Wednesday

    Time Temperature Precipitation Wind Pressure Humidity
    00:00 +24°C° 0.1 mm 1 mps 754 mmHg 99%
    01:00 +24°C° 0.1 mm 1 mps 754 mmHg 99%
    02:00 +24°C° 0.1 mm 1 mps 754 mmHg 99%
    03:00 +22°C° 0.1 mm 0 mps 753 mmHg 99%
    04:00 +22°C° 0.1 mm 0 mps 754 mmHg 99%
    05:00 +22°C° 0.1 mm 0 mps 754 mmHg 99%
    06:00 +22°C° 0.1 mm 0 mps 754 mmHg 99%
    07:00 +25°C° 0.2 mm 1 mps 755 mmHg 96%
    08:00 +26°C° 0.2 mm 1 mps 755 mmHg 93%
    09:00 +27°C° 0.2 mm 1 mps 756 mmHg 90%
    10:00 +28°C° 0.3 mm 2 mps 755 mmHg 83%
    11:00 +29°C° 0.3 mm 2 mps 755 mmHg 77%
    12:00 +30°C° 0.3 mm 2 mps 754 mmHg 70%
    13:00 +30°C° 0.4 mm 2 mps 753 mmHg 72%
    14:00 +30°C° 0.4 mm 2 mps 753 mmHg 73%
    15:00 +30°C° 0.4 mm 2 mps 752 mmHg 74%
    16:00 +28°C° 0.1 mm 2 mps 752 mmHg 79%
    17:00 +27°C° 0.1 mm 1 mps 753 mmHg 84%
    18:00 +26°C° 0.1 mm 1 mps 753 mmHg 89%
    19:00 +25°C° 0 mm 1 mps 753 mmHg 92%
    20:00 +25°C° 0 mm 1 mps 754 mmHg 96%
    21:00 +24°C° 0 mm 1 mps 754 mmHg 99%
    22:00 +22°C° 0 mm 0 mps 754 mmHg 99%
    23:00 +22°C° 0 mm 0 mps 754 mmHg 99%

    21 December, Thursday

    Time Temperature Precipitation Wind Pressure Humidity
    00:00 +22°C° 0 mm 0 mps 753 mmHg 99%
    01:00 +22°C° 0 mm 0 mps 753 mmHg 99%
    02:00 +22°C° 0 mm 0 mps 753 mmHg 99%
    03:00 +22°C° 0 mm 0 mps 753 mmHg 99%
    04:00 +22°C° 0.1 mm 0 mps 753 mmHg 99%
    05:00 +22°C° 0.1 mm 0 mps 753 mmHg 99%
    06:00 +22°C° 0.1 mm 0 mps 754 mmHg 99%
    07:00 +25°C° 0.1 mm 1 mps 754 mmHg 95%
    08:00 +26°C° 0.1 mm 1 mps 755 mmHg 91%
    09:00 +27°C° 0.1 mm 1 mps 755 mmHg 87%
    10:00 +29°C° 0.1 mm 1 mps 755 mmHg 79%
    11:00 +30°C° 0.1 mm 2 mps 754 mmHg 70%
    12:00 +31°C° 0.1 mm 2 mps 754 mmHg 62%
    13:00 +31°C° 0.1 mm 2 mps 753 mmHg 61%
    14:00 +31°C° 0.1 mm 2 mps 753 mmHg 59%
    15:00 +31°C° 0.1 mm 2 mps 752 mmHg 57%
    16:00 +30°C° 0 mm 2 mps 752 mmHg 66%
    17:00 +28°C° 0 mm 2 mps 753 mmHg 75%
    18:00 +26°C° 0 mm 1 mps 753 mmHg 85%
    19:00 +25°C° 0 mm 1 mps 753 mmHg 89%
    20:00 +25°C° 0 mm 1 mps 754 mmHg 93%
    21:00 +24°C° 0 mm 1 mps 754 mmHg 98%
    22:00 +24°C° 0.1 mm 1 mps 754 mmHg 98%
    23:00 +24°C° 0.1 mm 1 mps 754 mmHg 99%

    22 December, Friday

    Time Temperature Precipitation Wind Pressure Humidity
    00:00 +24°C° 0.1 mm 1 mps 753 mmHg 99%
    01:00 +24°C° 0 mm 1 mps 753 mmHg 99%
    02:00 +22°C° 0 mm 0 mps 753 mmHg 99%
    03:00 +22°C° 0 mm 0 mps 752 mmHg 99%
    04:00 +22°C° 0 mm 0 mps 753 mmHg 98%
    05:00 +24°C° 0 mm 1 mps 753 mmHg 98%
    06:00 +24°C° 0 mm 1 mps 753 mmHg 98%
    07:00 +25°C° 0.1 mm 1 mps 754 mmHg 93%
    08:00 +26°C° 0.1 mm 2 mps 754 mmHg 88%
    09:00 +28°C° 0.1 mm 2 mps 755 mmHg 82%
    10:00 +29°C° 0.2 mm 2 mps 754 mmHg 76%
    11:00 +30°C° 0.2 mm 3 mps 754 mmHg 69%
    12:00 +31°C° 0.2 mm 3 mps 753 mmHg 63%
    13:00 +31°C° 0.2 mm 3 mps 753 mmHg 63%
    14:00 +31°C° 0.2 mm 3 mps 752 mmHg 64%
    15:00 +31°C° 0.2 mm 3 mps 752 mmHg 65%
    16:00 +29°C° 0 mm 2 mps 752 mmHg 72%
    17:00 +28°C° 0 mm 2 mps 752 mmHg 80%
    18:00 +26°C° 0 mm 2 mps 753 mmHg 88%
    19:00 +26°C° 0 mm 2 mps 753 mmHg 91%
    20:00 +25°C° 0 mm 1 mps 753 mmHg 94%
    21:00 +25°C° 0 mm 1 mps 754 mmHg 97%
    22:00 +25°C° 0.1 mm 1 mps 753 mmHg 97%
    23:00 +25°C° 0.1 mm 1 mps 753 mmHg 97%
    Show more